Regional Weather Roundup
Issued by NWS

Home | Current Version | Previous Version | Text Only | Print | Product List | Glossary On
Versions: 1 2 3 4 5 6 7 8 9 10 11 12 13 14 15 16 17 18 19 20 21 22 23 24 25 26 27 28 29 30 31 32 33 34 35 36 37 38 39 40 41 42 43 44 45 46 47 48 49 50
000
ASHW40 PHFO 290812
RWRHI

WEATHER ROUNDUP FOR HAWAII
NATIONAL WEATHER SERVICE HONOLULU HI
1000 PM HST THU APR 28 2016

THIS IS AN AUTOMATED REPORT THAT HAS NOT BEEN QUALITY CONTROLLED.

NOTE..."FAIR" INDICATES FEW OR NO CLOUDS BELOW 12,000 FEET WITH NO
SIGNIFICANT WEATHER AND/OR OBSTRUCTIONS TO VISIBILITY.

* - THESE SITES REPORT LIMITED FIELDS

HIZ001>004-290900-
KAUAI-NIIHAU-

CITY           SKY/WX    TMP DP  RH WIND       PRES   REMARKS
LIHUE APT      CLOUDY    79  67  66 E16       30.15S
PORT ALLEN*      N/A     75 N/A N/A NE18        N/A
POIPU*           N/A     77 N/A N/A NE7G16      N/A
PRINCEVILLE*     N/A     73 N/A N/A SE3         N/A
KOKOLE POINT*  NOT AVBL
MOLOAA DAIRY*    N/A     75  68  78 E7          N/A
WAIMEA HTS*    NOT AVBL
PUU OPAE*      NOT AVBL
PUU LUA*       NOT AVBL
MAKAHA RIDGE*  NOT AVBL
$$

HIZ005>011-290900-
OAHU-

CITY           SKY/WX    TMP DP  RH WIND       PRES   REMARKS
HONOLULU       PTCLDY    77  65  66 NE12      30.13R
KALAELOA       CLEAR     75  63  66 NE5       30.14R
KANEOHE MCB    MOCLDY    77  67  71 E9G20     30.11S
WHEELER FIELD  FAIR      73  63  72 NE7       30.13S
BELLOWS*       NOT AVBL
KAHUKU*        NOT AVBL
WHEELER*       NOT AVBL
WAIANAE HARBOR NOT AVBL
DILLINGHAM*      N/A     70  63  78 MISG        N/A
KAHUKU TRN*      N/A     73  64  73 CALM        N/A
KAWAILOA*        N/A     70  63  78 E9G17       N/A
KII*             N/A     77  68  73 E15         N/A
MAKUA RANGE*     N/A     88  72  58 SE6         N/A  HX  94
OAHU FOREST NW NOT AVBL
SCHOFIELD BRK*   N/A     66  63  88 W1          N/A
SCHOFIELD S*   NOT AVBL
WAIANAE VLY*   NOT AVBL
KUAOKALA*      NOT AVBL
HONOULIUULI*   NOT AVBL
MOKUOLOE IS*   NOT AVBL
PALEHUA*       NOT AVBL
WAIAWA PHB*    NOT AVBL
$$

HIZ012>013-290900-
MOLOKAI-

CITY           SKY/WX    TMP DP  RH WIND       PRES   REMARKS
MOLOKAI AIRPT  CLEAR     73  64  73 CALM      30.13R
KALAUPAPA      NOT AVBL
MAKAPULAPAI*   NOT AVBL
MOLOKAI 1*     NOT AVBL
PUU ALII*      NOT AVBL
$$

HIZ016-290900-
KAHOOLAWE-

CITY           SKY/WX    TMP DP  RH WIND       PRES   REMARKS
KAHOOLAWE*     NOT AVBL
HAKIOAWA*      NOT AVBL
HONOKANAIA*      N/A     77  66  69 NE18G31   30.04
KANELOA*         N/A     73  68  83 E20G33    30.17
KEALIALALO*    NOT AVBL
LUA MAKIKA*    NOT AVBL
$$

HIZ014>015-290900-
LANAI-

CITY           SKY/WX    TMP DP  RH WIND       PRES   REMARKS
LANAI CITY     FAIR      66  62  87 NE3       30.18R
LANAI 1*       NOT AVBL
$$

HIZ017>028-290900-
MAUI-

CITY           SKY/WX    TMP DP  RH WIND       PRES   REMARKS
KAHULUI        PTCLDY    75  66  73 E16G22    30.11R
KAPALUA-W MAUI NOT AVBL
HANA AIRPORT   NOT AVBL
HANA*            N/A     77 N/A N/A E8          N/A
HALEAKALA SUMM   N/A     46   3  17 E28         N/A
MAALAEA BAY*   NOT AVBL
HALEAKALA*     NOT AVBL
KAUPO GAP*     NOT AVBL
KULA 1*          N/A     46  45  93 E3          N/A
$$

HIZ023>026-290900-
BIG ISLAND OF HAWAII COAST AND LOWER SLOPES-

CITY           SKY/WX    TMP DP  RH WIND       PRES   REMARKS
KAILUA KONA    MOCLDY    79  69  71 S5        30.09R
HILO           MOCLDY    73  63  70 SW6       30.15R
HONOKAA*         N/A     70 N/A N/A VRB1        N/A
KAWAIHAE MWT*    N/A     79 N/A N/A W6          N/A
KAWAIHAE*      NOT AVBL
SOUTH POINT*     N/A     72 N/A N/A N13G21      N/A
UPOLU AIRPORT*   N/A    N/A N/A N/A NE14G22     N/A
KAMUELA*       CLOUDY    64  59  82 NE10      30.22S
HAKALAU*         N/A     50  50  99 S3          N/A
KALOKO-HONOKO* NOT AVBL
PALI 2*          N/A     63  57  82 S12G17      N/A
KEALAKOMO*       N/A     75  63  64 NE12G18     N/A
KAUPULEHU*     NOT AVBL
KAPAPALA*        N/A     68  59  72 N7G16       N/A
LOWER KAHUKU*  NOT AVBL
PUHE CS*       NOT AVBL
PUHO CS*       NOT AVBL
PTA KEAMUKU*     N/A    N/A N/A N/A CALM        N/A
WAIKOLOA*      NOT AVBL
$$

HIZ027>028-290900-
BIG ISLAND OF HAWAII INTERIOR AND SUMMMITS-

CITY           SKY/WX    TMP DP  RH WIND       PRES   REMARKS
BRADSHAW FIELD MOCLDY    54  47  75 SE2       30.41R
MK VISITOR CEN   N/A     54 -26   3 E3          N/A
MAUNA KEA*       N/A     36 -24   7 NE9         N/A  WCI  29
MAUNA LOA*       N/A    N/A N/A N/A MISG        N/A
MAUNA LOA 1*   NOT AVBL
PTA KIPUKA*      N/A     57  50  77 E10G17      N/A
PTA RANGE 17*    N/A     55  52  88 NW1         N/A
PTA WEST*        N/A     61  57  88 SE3         N/A
NENE CABIN*    NOT AVBL
AHUMOA*        NOT AVBL
PTA PORTABLE*  NOT AVBL
PUU MALI*        N/A     52  48  87 SW3         N/A
$$

HIC003-290900-
NORTHWEST ISLANDS-

CITY           SKY/WX    TMP DP  RH WIND       PRES   REMARKS
MIDWAY ISLAND  LGT RAIN  73  70  88 NW7       30.10R
MIDWAY NOS*    NOT AVBL
FRENCH FRIGATE NOT AVBL
$$

PHZ110>124-180-290900-
BUOY REPORTS

STATION/POSITION TIME  TEMP    WIND        PRES    WAVE   SWELL
                       AIR SEA DIR/SP/G            HT/PER HT/DIR
                 (UTC) (F)     (DEG/KT/KT) (MB)    (FT/S) (FT/D)
BUOY 51001       0700   77 79   60/ 10/ 14 1018.8R
BUOY 51101       0750   75 75  100/ 10/ 14 1020.8R   6/ 8   5/110
BUOY 51100       NOT AVBL
BUOY 51002       0650   78 78   90/ 17/ 21 1017.2   10/ 9   7/ 90
BUOY 51003       0750   78 78   90/ 12/ 16 1018.8R   8/ 9   8/ 90
BUOY 51004       0750   79 79   90/ 19/ 21 1018.3R   8/10   5/110
BARBERS PT BUOY  NOT AVBL
WAIMEA BAY BUOY  0704      78                N/A     4/11   2/330
KAILUA BAY BUOY  0711      78                N/A     7/ 9   3/ 90
LANAI BUOY       0715      78                N/A     3/14   2/200
BARBERS PT 2     0703      79                N/A     5/14   2/190
PAUWELA MAUI     0709      76                N/A     7/ 9   3/ 20
HILO             0712      78                N/A     8/ 8   3/ 20
KANEOHE BAY BUOY 0706      77                N/A     6/ 9   2/360
HANALEI KAUAI    NOT AVBL
KAHULUI HARBOR   0700   76 78   50/ 11/ 15 1019.2R
HONOLULU HARBOR  0700   78 79   80/  4/  8 1020.5R
KILO NALU        NOT AVBL
HILO HARBOR      0700   74 76  250/  8/  9 1020.3R
MOKUOLOE         0700   77 78   90/ 10/ 16 1020.3
NAWILIWILI       0700   77 81   50/  9/ 13 1020.4R
WHOTS BUOY       NOT AVBL
BUOY 51028       NOT AVBL
$$

......................KEY........................................
  SKY/WX - SKY CONDITIONS/PRESENT WEATHER
  TMP    - TEMPERATURE IN FAHRENHEIT
  DWPT   - DEWPOINT IN FAHRENHEIT
  RH     - RELATIVE HUMIDITY IN PERCENT
  WIND   - DIRECTION AND SPEED /MPH FOR ISLANDS...KTS FOR BUOYS/
  PRES   - MEAN SEA LEVEL PRESSURE IN INCHES OF HG
  VSB    - VISIBILITY IN MILES
  HX     - HEAT INDEX
  WCI    - WIND CHILL INDEX
  VRB    - VARIABLE WIND DIRECTION
  N/A    - NOT AVAILABLE




USA.gov is the U.S. government's official web portal to all federal, state and local government web resources and services.